[[{"header":{"parameterUnit":"m.s-1","parameterCategory":1,"la1":30.2991,"la2":30.254,"lo1":-89.0895,"lo2":-89.0444,"dy":0.0017,"dx":0.0017,"nx":28,"ny":28,"refTime":"2025-09-10T21:00:00:Z","depth":0,"parameterNumber":2,"parameterNumberName":"U-component_of_WINDS"},"data":[0,0,0,0,0,0,0,0,0,0,0,0,0,0,0,0,0,0,0,0,0,0,0,0,0,0,0,0,0,0,0,0,0,0,0,0,0,0,0,0,0,0,0,0,0,0,0,0,0,0,0,0,0,0,0,0,0,0,-0.4213,-0.4213,0,-0.4204,-0.4204,-0.4204,-0.4162,-0.4161,-0.416,-0.4159,-0.4152,-0.4152,-0.4153,0,0,0,0,0,0,0,0,0,0,0,0,0,-0.4194,-0.4195,-0.4213,-0.4213,-0.4213,-0.4204,-0.4204,-0.4204,-0.4162,-0.4161,-0.4159,-0.4158,-0.4151,-0.4152,-0.4153,0,0,0,0,0,0,0,0,0,0,0,0,0,-0.4196,-0.4195,-0.4213,-0.4191,-0.4188,-0.4204,-0.4204,-0.4204,-0.4162,-0.4161,-0.4159,-0.4158,-0.4151,-0.4152,-0.4153,-0.419,0,0,-0.4157,-0.4157,0,0,0,0,0,0,0,0,-0.4196,-0.4197,-0.4194,-0.4192,-0.419,-0.4182,-0.4195,-0.4199,-0.4162,-0.4172,-0.4159,-0.4157,-0.4163,-0.4163,-0.4165,-0.419,-0.419,-0.4157,-0.4157,-0.4158,-0.4158,0,0,0,0,0,0,0,-0.4196,-0.4197,-0.4209,-0.4194,-0.4191,-0.4181,-0.418,-0.4195,-0.4176,-0.4171,-0.4168,-0.4168,-0.4162,-0.4164,-0.4164,-0.4189,-0.4157,-0.4158,-0.4158,-0.4159,-0.4244,-0.4246,0,0,0,0,0,0,-0.4199,-0.4197,-0.421,-0.4209,-0.4189,-0.4183,-0.4181,-0.4186,-0.4176,-0.4173,-0.4169,-0.4166,-0.4163,-0.4163,-0.4164,-0.4206,-0.4158,-0.4159,-0.416,-0.4242,-0.4244,-0.4246,0,0,0,0,0,0,-0.4198,-0.42,-0.421,-0.4202,-0.4203,-0.4185,-0.4191,-0.4187,-0.4189,-0.4174,-0.4171,-0.4175,-0.4162,-0.4162,-0.4184,-0.4205,-0.4159,-0.416,-0.4241,-0.4243,-0.4245,-0.4291,0,0,0,0,0,0,-0.4198,-0.42,-0.4214,-0.4203,-0.4203,-0.423,-0.4192,-0.4188,-0.4191,-0.4187,-0.4179,-0.4176,-0.416,-0.4182,-0.4185,-0.4206,-0.4161,-0.4238,-0.4242,-0.4244,-0.4288,-0.4295,-0.4301,0,0,0,0,0,-0.4198,-0.4228,-0.4215,-0.4217,-0.422,-0.4231,-0.4231,-0.4213,-0.4193,-0.4206,-0.4197,-0.4176,-0.4203,-0.4185,-0.4187,-0.4209,-0.4237,-0.4241,-0.4244,-0.4285,-0.4294,-0.4301,0,0,0,0,0,0,-0.4242,-0.4226,-0.4211,-0.4239,-0.4236,-0.4224,-0.424,-0.4223,-0.4226,-0.4222,-0.4199,-0.4198,-0.4223,-0.4218,-0.4199,-0.4244,-0.4216,-0.4221,-0.4246,-0.4255,-0.4261,-0.4262,-0.4162,0,0,0,0,0,-0.4255,-0.4265,-0.4251,-0.4276,-0.4276,-0.4258,-0.4263,-0.4248,-0.4245,-0.4244,-0.4236,-0.4235,-0.4243,-0.4248,-0.4255,-0.4287,-0.4285,-0.4303,-0.431,-0.4316,-0.432,-0.4336,-0.4344,-0.4258,-0.4258,-0.4258,0,0,-0.4283,-0.4275,-0.4283,-0.4285,-0.4282,-0.4293,-0.4258,-0.4271,-0.428,-0.4247,-0.4266,-0.426,-0.4257,-0.4284,-0.4295,-0.4281,-0.4343,-0.432,-0.4325,-0.4326,-0.4341,-0.4349,-0.4356,-0.426,-0.426,-0.4259,0,0,-0.4337,-0.4333,-0.4353,-0.435,-0.4345,-0.4334,-0.4339,-0.4329,-0.4323,-0.4342,-0.4318,-0.4328,-0.4342,-0.434,-0.4341,-0.4396,-0.4377,-0.4399,-0.4434,-0.445,-0.4457,-0.4463,-0.4482,-0.4489,-0.4403,-0.4403,-0.4403,0,-0.4372,-0.4387,-0.4366,-0.4381,-0.4383,-0.4353,-0.4374,-0.4372,-0.437,-0.4372,-0.4356,-0.4373,-0.4369,-0.4395,-0.4408,-0.441,-0.4415,-0.4399,-0.4457,-0.4463,-0.4468,-0.4487,-0.4494,-0.4405,-0.4405,-0.4405,-0.4405,0,-0.443,-0.4441,-0.4458,-0.4456,-0.446,-0.4478,-0.446,-0.4466,-0.4452,-0.4442,-0.4462,-0.4456,-0.446,-0.4465,-0.4452,-0.4489,-0.4481,-0.4461,-0.4433,-0.448,-0.4496,-0.4503,-0.4409,-0.4408,-0.4408,-0.4407,0,0,-0.4513,-0.4498,-0.4505,-0.4504,-0.4496,-0.4505,-0.4521,-0.4525,-0.4531,-0.4531,-0.4544,-0.4557,-0.4539,-0.454,-0.4526,-0.454,-0.4584,-0.4519,-0.4519,-0.4531,-0.4625,-0.4639,-0.4648,-0.4571,-0.4572,-0.4573,-0.4625,0,-0.4565,-0.4592,-0.4573,-0.4604,-0.4614,-0.4585,-0.46,-0.4597,-0.4588,-0.4596,-0.4587,-0.4596,-0.4571,-0.4572,-0.4585,-0.4576,-0.4602,-0.4572,-0.4584,-0.4584,-0.4585,-0.4656,-0.4672,-0.4721,-0.4632,-0.4633,-0.4633,0,-0.463,-0.4631,-0.4662,-0.4652,-0.4656,-0.4669,-0.4671,-0.4679,-0.4675,-0.4668,-0.4669,-0.4651,-0.4667,-0.4639,-0.4661,-0.4641,-0.4645,-0.4641,-0.4643,-0.4643,-0.4612,-0.4659,-0.4736,-0.4744,-0.4644,-0.4643,-0.4642,0,-0.4687,-0.4697,-0.4717,-0.4716,-0.4705,-0.4715,-0.4711,-0.4706,-0.471,-0.4712,-0.4714,-0.4718,-0.472,-0.4724,-0.4708,-0.4689,-0.4732,-0.4702,-0.4727,-0.4727,-0.4737,-0.4736,-0.4816,-0.474,-0.474,-0.4739,-0.4739,0,-0.4747,-0.4767,-0.4742,-0.4754,-0.4776,-0.4755,-0.4777,-0.477,-0.4766,-0.4776,-0.4753,-0.4763,-0.4741,-0.475,-0.4737,-0.4757,-0.4759,-0.4753,-0.475,-0.4755,-0.4756,-0.4758,-0.4754,-0.4741,-0.4741,-0.4741,-0.474,0,-0.4814,-0.4798,-0.4818,-0.4806,-0.4803,-0.482,-0.4809,-0.482,-0.481,-0.4824,-0.4826,-0.481,-0.4819,-0.4803,-0.481,-0.4802,-0.483,-0.4821,-0.4831,-0.4828,-0.4853,-0.4851,-0.4936,-0.4946,-0.4864,-0.4865,-0.4865,0,-0.4853,-0.4868,-0.4857,-0.4862,-0.486,-0.4868,-0.4871,-0.4851,-0.4856,-0.4853,-0.4864,-0.4871,-0.4875,-0.4891,-0.488,-0.4885,-0.4876,-0.4906,-0.4877,-0.4882,-0.4876,-0.4876,-0.4877,-0.4912,-0.4913,-0.4914,-0.4914,0,-0.4925,-0.4916,-0.4921,-0.4924,-0.4928,-0.493,-0.4929,-0.4935,-0.4914,-0.492,-0.4928,-0.4932,-0.4938,-0.4946,-0.4948,-0.4944,-0.4926,-0.4923,-0.4929,-0.4935,-0.494,-0.4937,-0.4847,-0.4922,-0.4921,-0.492,-0.492,-0.492,-0.4979,-0.4991,-0.4985,-0.4991,-0.4989,-0.4989,-0.4999,-0.4989,-0.4996,-0.4999,-0.4987,-0.4998,-0.4995,-0.4996,-0.4994,-0.5003,-0.499,-0.4999,-0.5001,-0.5003,-0.5007,-0.4939,-0.5004,-0.5003,-0.5003,-0.5003,-0.5003,0,-0.5049,-0.5044,-0.505,-0.505,-0.5055,-0.5037,-0.5035,-0.5041,-0.5051,-0.5049,-0.5053,-0.5063,-0.507,-0.506,-0.5065,-0.5074,-0.5065,-0.5076,-0.5075,-0.5074,-0.5018,-0.5013,-0.5082,-0.5082,-0.5082,-0.5082,-0.5082,-0.5082,-0.5086,-0.5104,-0.5095,-0.5113,-0.5107,-0.5117,-0.5118,-0.5118,-0.5116,-0.5128,-0.5133,-0.5126,-0.5121,-0.5125,-0.5131,-0.5128,-0.5131,-0.5144,-0.5138,-0.5086,-0.5078,-0.5071,-0.5065,-0.5145,-0.5145,-0.5193,-0.5193,-0.5194]},{"header":{"parameterUnit":"m.s-1","parameterCategory":1,"la1":30.2991,"la2":30.254,"lo1":-89.0895,"lo2":-89.0444,"dy":0.0017,"dx":0.0017,"nx":28,"ny":28,"refTime":"2025-09-10T21:00:00:Z","depth":0,"parameterNumber":3,"parameterNumberName":"V-component_of_WINDS"},"data":[0,0,0,0,0,0,0,0,0,0,0,0,0,0,0,0,0,0,0,0,0,0,0,0,0,0,0,0,0,0,0,0,0,0,0,0,0,0,0,0,0,0,0,0,0,0,0,0,0,0,0,0,0,0,0,0,0,0,-1.8346,-1.8347,0,-1.8466,-1.8467,-1.8468,-1.8506,-1.8506,-1.8505,-1.8505,-1.8625,-1.8629,-1.8632,0,0,0,0,0,0,0,0,0,0,0,0,0,-1.8148,-1.8152,-1.8346,-1.8347,-1.8349,-1.8465,-1.8467,-1.8469,-1.8506,-1.8506,-1.8505,-1.8504,-1.8624,-1.8628,-1.8633,0,0,0,0,0,0,0,0,0,0,0,0,0,-1.8248,-1.8153,-1.8346,-1.8382,-1.8386,-1.8465,-1.8467,-1.8469,-1.8507,-1.8506,-1.8505,-1.8504,-1.8622,-1.8628,-1.8633,-1.8684,0,0,-1.865,-1.8653,0,0,0,0,0,0,0,0,-1.8242,-1.8255,-1.8375,-1.8379,-1.8385,-1.847,-1.8442,-1.8541,-1.8507,-1.8461,-1.8505,-1.8504,-1.8574,-1.8584,-1.8608,-1.869,-1.8695,-1.8651,-1.8654,-1.8657,-1.8658,0,0,0,0,0,0,0,-1.8235,-1.825,-1.8393,-1.8377,-1.8383,-1.8392,-1.8405,-1.8461,-1.8521,-1.8465,-1.8468,-1.8482,-1.8577,-1.8602,-1.8611,-1.8697,-1.8651,-1.8656,-1.8659,-1.8661,-1.8827,-1.8828,0,0,0,0,0,0,-1.8222,-1.8244,-1.8389,-1.8397,-1.831,-1.8396,-1.8411,-1.8444,-1.852,-1.8531,-1.8482,-1.8483,-1.8593,-1.8604,-1.8615,-1.868,-1.8657,-1.8662,-1.8665,-1.8826,-1.8828,-1.8829,0,0,0,0,0,0,-1.8218,-1.8235,-1.8385,-1.8321,-1.8341,-1.84,-1.8437,-1.8446,-1.8472,-1.8533,-1.8544,-1.8498,-1.8593,-1.8607,-1.8667,-1.8685,-1.8664,-1.867,-1.8825,-1.8827,-1.8828,-1.881,0,0,0,0,0,0,-1.8212,-1.8233,-1.8253,-1.8322,-1.8344,-1.8435,-1.8438,-1.8449,-1.8482,-1.8484,-1.8551,-1.8561,-1.8594,-1.8659,-1.8673,-1.8692,-1.8674,-1.8824,-1.8826,-1.8828,-1.8809,-1.8811,-1.8812,0,0,0,0,0,-1.8205,-1.8243,-1.8254,-1.8272,-1.8371,-1.8436,-1.8449,-1.8486,-1.8483,-1.8504,-1.8543,-1.8559,-1.8681,-1.8664,-1.8681,-1.8702,-1.8823,-1.8825,-1.8827,-1.8809,-1.8811,-1.8812,0,0,0,0,0,0,-1.8175,-1.8253,-1.8266,-1.8327,-1.8375,-1.8442,-1.8469,-1.8487,-1.8536,-1.8535,-1.8579,-1.8594,-1.865,-1.8682,-1.8663,-1.8756,-1.8752,-1.8758,-1.8733,-1.8735,-1.8736,-1.8727,-1.8679,0,0,0,0,0,-1.8175,-1.8222,-1.8287,-1.8335,-1.8358,-1.841,-1.8439,-1.8464,-1.8515,-1.8535,-1.8578,-1.8626,-1.8676,-1.8707,-1.8756,-1.8814,-1.8829,-1.8837,-1.8839,-1.8839,-1.8844,-1.8877,-1.8881,-1.8836,-1.8836,-1.8836,0,0,-1.8177,-1.8225,-1.8252,-1.833,-1.837,-1.8417,-1.8426,-1.8475,-1.8511,-1.8542,-1.8601,-1.8635,-1.8691,-1.8751,-1.8779,-1.8779,-1.886,-1.8842,-1.8843,-1.8847,-1.888,-1.8884,-1.8888,-1.8838,-1.8838,-1.8838,0,0,-1.8203,-1.8245,-1.8289,-1.8329,-1.839,-1.8424,-1.8434,-1.8499,-1.8523,-1.8583,-1.8608,-1.865,-1.8734,-1.8773,-1.8804,-1.8847,-1.8863,-1.8861,-1.8868,-1.89,-1.8904,-1.8907,-1.8922,-1.8927,-1.8865,-1.8865,-1.8865,0,-1.8197,-1.827,-1.831,-1.8358,-1.8392,-1.8424,-1.8469,-1.8505,-1.8578,-1.86,-1.86,-1.8706,-1.8746,-1.8815,-1.8826,-1.885,-1.8863,-1.8854,-1.89,-1.8904,-1.8908,-1.8923,-1.8928,-1.8865,-1.8865,-1.8865,-1.8865,0,-1.8259,-1.8309,-1.8338,-1.8408,-1.8445,-1.8492,-1.8538,-1.8571,-1.8593,-1.8627,-1.8688,-1.8737,-1.8797,-1.8815,-1.8836,-1.8887,-1.8885,-1.8892,-1.8889,-1.8911,-1.8926,-1.8932,-1.8864,-1.8864,-1.8864,-1.8864,0,0,-1.827,-1.8362,-1.8372,-1.8405,-1.8474,-1.8513,-1.8561,-1.8619,-1.8647,-1.8696,-1.8737,-1.8807,-1.8814,-1.8849,-1.8875,-1.8903,-1.8934,-1.8907,-1.8909,-1.891,-1.8993,-1.8988,-1.8993,-1.8945,-1.8946,-1.8947,-1.8988,0,-1.8305,-1.8393,-1.843,-1.85,-1.8547,-1.8578,-1.862,-1.8666,-1.8699,-1.8743,-1.8779,-1.8829,-1.8834,-1.8855,-1.8885,-1.8924,-1.8951,-1.8921,-1.8983,-1.8985,-1.8968,-1.9001,-1.8996,-1.9032,-1.8994,-1.8995,-1.8996,0,-1.8358,-1.8408,-1.8483,-1.8547,-1.8568,-1.8605,-1.8662,-1.8704,-1.8757,-1.8779,-1.8819,-1.8844,-1.8895,-1.8889,-1.896,-1.8939,-1.8967,-1.899,-1.8992,-1.8999,-1.8991,-1.9009,-1.9044,-1.905,-1.9005,-1.9005,-1.9004,0,-1.8358,-1.8444,-1.8501,-1.8527,-1.8603,-1.8629,-1.8661,-1.8714,-1.8747,-1.8797,-1.8819,-1.8874,-1.8904,-1.8945,-1.8984,-1.8977,-1.9051,-1.9049,-1.9071,-1.907,-1.9085,-1.9083,-1.9125,-1.9103,-1.9102,-1.9102,-1.9102,0,-1.8394,-1.8438,-1.8502,-1.8536,-1.8587,-1.863,-1.8679,-1.8713,-1.876,-1.8802,-1.8832,-1.887,-1.8919,-1.8963,-1.8994,-1.9048,-1.9061,-1.908,-1.9088,-1.9078,-1.9075,-1.9096,-1.9094,-1.9104,-1.9104,-1.9103,-1.9103,0,-1.8402,-1.8446,-1.8509,-1.8577,-1.8595,-1.8629,-1.8686,-1.8721,-1.8755,-1.8807,-1.8822,-1.8876,-1.893,-1.8973,-1.9043,-1.9064,-1.9121,-1.9129,-1.9103,-1.9107,-1.9126,-1.9123,-1.9182,-1.9192,-1.9163,-1.9163,-1.9164,0,-1.8421,-1.8457,-1.8528,-1.8558,-1.8591,-1.8639,-1.8673,-1.8717,-1.8751,-1.8815,-1.8842,-1.8898,-1.8945,-1.9029,-1.9075,-1.9128,-1.9139,-1.9156,-1.9147,-1.9135,-1.9139,-1.9136,-1.914,-1.9156,-1.9156,-1.9156,-1.9156,0,-1.8451,-1.8472,-1.852,-1.8577,-1.8617,-1.8664,-1.871,-1.8733,-1.8786,-1.8823,-1.8878,-1.8915,-1.8987,-1.9042,-1.9101,-1.9134,-1.9154,-1.9159,-1.9167,-1.9157,-1.914,-1.9149,-1.9105,-1.9157,-1.9157,-1.9157,-1.9157,-1.9157,-1.8466,-1.8499,-1.8554,-1.8608,-1.8648,-1.8691,-1.8727,-1.8766,-1.8814,-1.8877,-1.8899,-1.8956,-1.9009,-1.909,-1.9124,-1.9169,-1.9171,-1.9182,-1.9185,-1.9187,-1.9186,-1.9133,-1.918,-1.918,-1.918,-1.918,-1.918,0,-1.8498,-1.8535,-1.8584,-1.8649,-1.8691,-1.8707,-1.876,-1.8793,-1.8844,-1.8892,-1.8938,-1.9002,-1.9056,-1.9106,-1.9162,-1.9188,-1.9199,-1.9202,-1.92,-1.9207,-1.9181,-1.9169,-1.9192,-1.9192,-1.9192,-1.9192,-1.9192,-1.9192,-1.8519,-1.8575,-1.8602,-1.8679,-1.8716,-1.8773,-1.8802,-1.8842,-1.8881,-1.8951,-1.8996,-1.9029,-1.9078,-1.9138,-1.9188,-1.9201,-1.922,-1.9221,-1.9236,-1.9211,-1.9209,-1.9207,-1.9196,-1.9225,-1.9225,-1.9259,-1.9259,-1.9259]}]]